This demonstration page uses our WeatherBlox Daily Observations layout. Learn more.

Left ArrowRight Arrow

Hourly Observations for July 31, 2021

Temp ( °F °C ) Dew Point ( °F °C ) Humidity (%) Winds ( mph kmh ) Pressure ( in mb ) Visibility ( mi km ) Precip ( " mm )
12:59 am 00:59 Cloudy with Light Rain 75 23.9 71 21.7 88 88 VRB 7 11 29.93 1014 7 11 0.18 4.57
1:59 am 01:59 Cloudy 77 25 72 22.2 85 85 NE 6 9 29.94 1014 7 11 0.00 0.00
2:59 am 02:59 Cloudy 77 25 71 21.7 82 82 ENE 12 19 29.93 1014 7 11 0.00 0.00
3:59 am 03:59 Partly Cloudy with Mist and Fog 74 23.3 71 21.7 91 91 Calm 29.93 1013 5 8 0.00 0.00
4:59 am 04:59 Cloudy 73 22.8 70 21.1 90 90 Calm 29.93 1014 7 11 0.00 0.00
5:59 am 05:59 Partly Cloudy 73 22.8 69 20.6 87 87 VRB 5 7 29.95 1014 7 11 0.00 0.00
6:59 am 06:59 Mostly Cloudy 78 25.6 70 21.1 76 76 N 5 7 29.96 1014 7 11 0.00 0.00
7:59 am 07:59 Mostly Cloudy 78 25.6 69 20.6 74 74 ENE 14 22 29.97 1015 9 14 0.00 0.00
8:59 am 08:59 Mostly Cloudy 79 26.1 70 21.1 74 74 ENE 14 22 29.98 1015 8 13 0.00 0.00
9:59 am 09:59 Mostly Cloudy 80 26.7 69 20.6 69 69 ENE 13 20 29.98 1015 9 14 0.00 0.00
10:47 am 10:47 Mostly Cloudy 79 26.1 68 20 69 69 ENE 16 26 30.00 1016 9 14 0.00 0.00
10:59 am 10:59 Mostly Cloudy 79 26.1 68 20 69 69 ENE 14 22 30.00 1016 9 14 0.00 0.00
11:59 am 11:59 Mostly Cloudy 79 26.1 67 19.4 67 67 ENE 14 22 30.00 1016 9 14 0.00 0.00
12:59 pm 12:59 Mostly Cloudy 80 26.7 68 20 67 67 E 13 20 29.99 1016 10 16 0.00 0.00
1:59 pm 13:59 Mostly Cloudy 82 27.8 67 19.4 60 60 E 15 24 29.96 1015 10 16 0.00 0.00
2:59 pm 14:59 Cloudy 81 27.2 68 20 65 65 E 12 19 29.96 1015 10 16 0.00 0.00
3:59 pm 15:59 Cloudy 80 26.7 67 19.4 64 64 E 14 22 29.97 1015 10 16 0.00 0.00
4:59 pm 16:59 Cloudy 79 26.1 67 19.4 67 67 ENE 10 17 29.96 1015 10 16 0.00 0.00
5:59 pm 17:59 Mostly Cloudy 80 26.7 67 19.4 64 64 E 10 17 29.95 1014 10 16 0.00 0.00
6:59 pm 18:59 Mostly Cloudy 77 25 67 19.4 71 71 E 9 15 29.95 1014 10 16 0.00 0.00
7:59 pm 19:59 Mostly Cloudy 76 24.4 68 20 77 77 E 9 15 29.96 1015 10 16 0.00 0.00
8:59 pm 20:59 Mostly Cloudy 75 23.9 68 20 79 79 E 5 7 29.95 1014 10 16 0.00 0.00
9:59 pm 21:59 Partly Cloudy 75 23.9 67 19.4 76 76 Calm 29.96 1015 10 16 0.00 0.00
10:59 pm 22:59 Mostly Cloudy 75 23.9 68 20 79 79 Calm 29.95 1014 10 16 0.00 0.00
11:59 pm 23:59 Mostly Cloudy 76 24.4 69 20.6 79 79 Calm 29.93 1014 10 16 0.00 0.00

Powered by AerisWeather